Terug naar catalogus

SL-14 R/B

ActiefPO
NORAD 21423·ROCKET BODY·🇷🇺 Russia

Gelanceerd Jun 13, 1991 vanaf Plesetsk Cosmodrome

Loading…

Volgende Passages (komende 24 uur)

TLE

VersSource: Space-Track

Epoch: Sep 14, 2026, 08:22 UTC

1 21423U 91042B   26257.34870076  .00000277  00000-0  31995-4 0  9992
2 21423  82.4925  43.2574 0016559 346.1894  13.8865 14.81945900881010

Volg SL-14 R/B in realtime met AllMySat

Download on the App Store